Stations météo

réclame
Mon MeteoGroup
Plymouth, Grande-Bretagne (3827): Température de l'air & dewpoint: 13.06.2018 19:00:00 - 19.06.2018 19:00:00 (BST)Plymouth, Grande-Bretagne (3827): Vitesse du vent & gusts: 13.06.2018 19:00:00 - 19.06.2018 19:00:00 (BST)Plymouth, Grande-Bretagne (3827): Direction du vent: 13.06.2018 19:00:00 - 19.06.2018 19:00:00 (BST)Plymouth, Grande-Bretagne (3827): reduced air pressure: 13.06.2018 19:00:00 - 19.06.2018 19:00:00 (BST)Plymouth, Grande-Bretagne (3827): visibility: 13.06.2018 19:00:00 - 19.06.2018 19:00:00 (BST)Plymouth, Grande-Bretagne (3827): Quantités de précipitations: 13.06.2018 19:00:00 - 19.06.2018 19:00:00 (BST)
Date & Time tt [°C] td [°C] ff [km/h] ff [knt] fx [km/h] fx [knt] dd ppp [hPa] vv [km] rr [mm]
19.06.2018 19:00:00 - - - - - - - - - -
19.06.2018 18:00:00 17,0 15,1 16 9 - - SW 1024,6 15 0,0
19.06.2018 17:00:00 17,3 15,3 22 12 - - SW 1024,6 16 0,0
19.06.2018 16:00:00 17,0 15,2 9 5 - - SSW 1024,8 13 0,0
19.06.2018 15:00:00 17,3 15,9 13 7 - - SSW 1024,9 13 0,0
19.06.2018 14:00:00 16,8 15,9 13 7 - - SSW 1025,0 10 0,0
19.06.2018 13:00:00 15,7 15,4 15 8 - - SSW 1025,1 3,4 0,0
19.06.2018 12:00:00 15,6 15,4 13 7 - - SW 1025,4 3,6 0,0
19.06.2018 11:00:00 15,8 15,7 13 7 - - SW 1025,3 4,4 0,2
19.06.2018 10:00:00 15,1 15,0 11 6 - - SSW 1025,2 0,5 0,0
19.06.2018 09:00:00 14,7 14,6 9 5 - - SSW 1025,1 0,6 0,0
19.06.2018 08:00:00 14,6 14,5 13 7 - - SSW 1024,8 1,3 0,0
19.06.2018 07:00:00 14,9 14,8 11 6 - - SW 1024,3 4,9 0,0
19.06.2018 06:00:00 14,7 14,6 11 6 - - WSW 1024,1 0,6 0,0
19.06.2018 05:00:00 14,9 14,8 15 8 - - WSW 1023,9 2,8 0,0
19.06.2018 04:00:00 14,7 14,6 13 7 - - WSW 1023,8 0,5 0,0
19.06.2018 03:00:00 14,6 14,5 13 7 - - SW 1023,8 2,1 0,0
19.06.2018 02:00:00 14,7 14,5 15 8 - - WSW 1023,8 2,1 0,0
19.06.2018 01:00:00 14,7 14,6 18 10 - - WSW 1023,8 2,1 -
19.06.2018 00:00:00 14,8 14,7 22 12 - - WSW 1024,1 3,5 0,0
18.06.2018 23:00:00 14,8 14,6 21 11 - - SW 1023,9 0,4 0,0
18.06.2018 22:00:00 14,8 14,5 22 12 - - WSW 1023,8 0,5 0,0
18.06.2018 21:00:00 15,1 14,6 24 13 - - SW 1023,4 3,2 0,0
18.06.2018 20:00:00 15,4 14,7 26 14 - - SW 1023,3 6 0,0
18.06.2018 19:00:00 16,0 14,9 28 15 - - SW 1022,9 8 0,0
18.06.2018 18:00:00 15,9 14,9 22 12 - - WSW 1022,6 7 0,0
18.06.2018 17:00:00 16,0 14,7 21 11 - - SW 1022,5 6 0,0
18.06.2018 16:00:00 15,5 14,6 22 12 - - SW 1022,4 4,7 0,0
18.06.2018 15:00:00 15,4 14,8 21 11 - - SSW 1022,5 2,3 0,0
18.06.2018 14:00:00 15,0 14,1 18 10 - - SW 1022,7 3,4 0,0
18.06.2018 13:00:00 16,1 13,3 21 11 - - SW 1022,9 7 0,0
18.06.2018 12:00:00 18,3 13,6 18 10 - - SW 1022,6 17 0,0
18.06.2018 11:00:00 19,6 13,7 15 8 - - W 1022,3 10 0,0
18.06.2018 10:00:00 16,2 11,9 18 10 - - W 1022,1 13 0,0
18.06.2018 09:00:00 15,1 11,1 15 8 - - W 1022,0 9 0,0
18.06.2018 08:00:00 14,2 10,7 15 8 - - WNW 1021,4 27 0,0
18.06.2018 07:00:00 13,7 10,7 24 13 - - W 1020,9 21 0,0
18.06.2018 06:00:00 13,4 12,0 18 10 - - W 1020,1 30 0,0
18.06.2018 05:00:00 13,4 11,7 13 7 - - WNW 1019,9 21 0,0
18.06.2018 04:00:00 13,4 12,2 21 11 - - W 1019,6 23 0,0
18.06.2018 03:00:00 13,5 12,7 21 11 - - WSW 1019,6 11 0,0
18.06.2018 02:00:00 13,8 12,9 21 11 - - WSW 1019,2 12 0,0
18.06.2018 01:00:00 14,0 12,5 15 8 - - WSW 1019,0 14 0,0
18.06.2018 00:00:00 14,0 12,6 18 10 - - W 1019,4 12 0,0
17.06.2018 23:00:00 14,3 12,6 22 12 - - W 1018,9 19 0,0
17.06.2018 22:00:00 14,8 13,9 18 10 - - WSW 1018,4 8 0,0
17.06.2018 21:00:00 14,9 14,4 22 12 - - WSW 1017,8 6 0,0
17.06.2018 20:00:00 15,1 14,6 18 10 - - WSW 1017,3 8 0,0
17.06.2018 19:00:00 15,0 14,6 16 9 - - WSW 1017,1 3,2 0,0
17.06.2018 18:00:00 14,7 14,3 16 9 - - SSW 1017,0 5 0,0
17.06.2018 17:00:00 15,1 14,5 21 11 - - SSW 1016,7 5 0,0
17.06.2018 16:00:00 15,1 14,6 21 11 - - SSW 1016,9 5 0,0
17.06.2018 15:00:00 15,0 14,5 24 13 - - SSW 1016,5 7 0,0
17.06.2018 14:00:00 14,9 14,6 24 13 - - SSW 1016,4 7 0,2
17.06.2018 13:00:00 14,1 13,7 28 15 - - SSW 1016,7 3,0 0,4
17.06.2018 12:00:00 13,9 13,3 26 14 - - SSW 1017,2 3,9 0,2
17.06.2018 11:00:00 13,7 13,0 22 12 - - SSW 1017,2 4,1 0,0
17.06.2018 10:00:00 14,3 12,3 26 14 - - SSW 1017,4 6 0,0
17.06.2018 09:00:00 15,5 12,3 21 11 - - SW 1017,4 22 0,0
17.06.2018 08:00:00 14,7 11,3 18 10 - - SW 1017,4 10 0,0
17.06.2018 07:00:00 13,7 11,0 21 11 - - WSW 1017,4 26 0,0
17.06.2018 06:00:00 13,4 10,7 21 11 - - WSW 1017,6 19 0,0
17.06.2018 05:00:00 13,2 10,2 18 10 - - WSW 1017,2 21 0,0
17.06.2018 04:00:00 13,2 9,9 22 12 - - WSW 1017,1 15 0,0
17.06.2018 03:00:00 13,2 10,4 24 13 - - WSW 1017,3 13 0,0
17.06.2018 02:00:00 13,2 10,3 26 14 - - WSW 1017,5 16 0,0
17.06.2018 01:00:00 13,2 10,4 24 13 - - WSW 1017,6 14 0,0
17.06.2018 00:00:00 13,4 10,1 22 12 - - WSW 1017,7 26 0,0
16.06.2018 23:00:00 13,4 10,2 21 11 - - WSW 1017,6 19 0,0
16.06.2018 22:00:00 13,8 10,6 21 11 - - WSW 1017,3 18 0,0
16.06.2018 21:00:00 13,8 10,5 16 9 - - W 1016,8 23 0,0
16.06.2018 20:00:00 14,0 10,6 18 10 - - WSW 1016,6 18 0,0
16.06.2018 19:00:00 14,9 10,0 26 14 - - W 1016,3 16 0,0
16.06.2018 18:00:00 15,6 9,1 21 11 - - WNW 1016,1 20 0,0
16.06.2018 17:00:00 15,0 10,0 22 12 - - W 1016,0 24 0,0
16.06.2018 16:00:00 15,4 9,1 24 13 - - W 1015,9 17 0,0
16.06.2018 15:00:00 15,1 10,5 29 16 46 25 W 1015,4 13 0,0
16.06.2018 14:00:00 16,0 11,7 26 14 50 27 W 1014,5 9 0,0
16.06.2018 13:00:00 16,4 14,3 29 16 48 26 WSW 1013,8 17 0,0
16.06.2018 12:00:00 15,9 15,4 22 12 - - SSW 1013,7 8 0,0
16.06.2018 11:00:00 13,9 13,6 34 18 48 26 SSW 1013,8 2,5 1,0
16.06.2018 10:00:00 13,8 13,4 28 15 - - SSW 1014,0 7 0,0
16.06.2018 09:00:00 13,6 12,9 24 13 - - SSW 1014,4 7 0,0
16.06.2018 08:00:00 13,2 12,5 18 10 - - SSW 1014,5 10 1,2
16.06.2018 07:00:00 12,9 12,0 18 10 - - SW 1014,8 2,3 0,4
16.06.2018 06:00:00 13,1 11,3 21 11 - - SSW 1014,8 14 0,0
16.06.2018 05:00:00 13,6 11,2 22 12 - - SSW 1015,0 22 0,0
16.06.2018 04:00:00 13,0 10,7 13 7 - - SW 1015,3 27 0,0
16.06.2018 03:00:00 12,7 10,6 9 5 - - WSW 1016,0 13 0,2
16.06.2018 02:00:00 12,9 10,7 9 5 - - WSW 1016,6 9 0,0
16.06.2018 01:00:00 13,1 9,9 9 5 - - W 1016,9 17 0,0
16.06.2018 00:00:00 13,2 9,6 13 7 - - W 1017,0 19 0,0
15.06.2018 23:00:00 13,1 9,3 9 5 - - WSW 1017,3 15 0,0
15.06.2018 22:00:00 13,2 8,4 11 6 - - W 1017,5 28 0,0
15.06.2018 21:00:00 13,9 9,2 15 8 - - WSW 1017,4 23 0,0
15.06.2018 20:00:00 15,0 12,1 15 8 - - SSW 1017,3 11 0,0
15.06.2018 19:00:00 15,5 11,3 22 12 - - SW 1017,9 22 0,0
15.06.2018 18:00:00 17,0 12,5 16 9 - - SSW 1017,7 18 0,0
15.06.2018 17:00:00 16,0 11,5 16 9 - - SW 1018,3 30 0,0
15.06.2018 16:00:00 16,6 12,2 22 12 - - SW 1018,6 13 0,0
15.06.2018 15:00:00 16,1 11,9 24 13 - - SW 1018,9 25 0,0
15.06.2018 14:00:00 16,9 12,5 22 12 - - SW 1018,7 16 0,0
15.06.2018 13:00:00 17,5 12,4 21 11 - - SSW 1018,7 13 0,0
15.06.2018 12:00:00 17,5 11,8 18 10 - - SW 1018,9 16 0,0
15.06.2018 11:00:00 17,7 12,7 15 8 - - SSW 1018,7 18 0,0
15.06.2018 10:00:00 16,5 11,9 15 8 - - SSW 1018,9 19 0,0
15.06.2018 09:00:00 15,2 11,7 8 4 - - WSW 1018,8 11 0,0
15.06.2018 08:00:00 12,9 11,9 4 2 - - WSW 1018,7 10 0,0
15.06.2018 07:00:00 11,1 10,5 2 1 - - N 1018,6 10 0,0
15.06.2018 06:00:00 10,7 10,2 9 5 - - W 1018,4 8 0,0
15.06.2018 05:00:00 10,1 9,5 9 5 - - W 1018,3 9 0,0
15.06.2018 04:00:00 10,4 9,8 11 6 - - W 1018,4 8 0,0
15.06.2018 03:00:00 10,7 10,1 11 6 - - WNW 1018,2 7 0,0
15.06.2018 02:00:00 10,6 9,8 11 6 - - W 1018,5 8 0,0
15.06.2018 01:00:00 11,3 10,1 8 4 - - WNW 1018,4 10 0,0
15.06.2018 00:00:00 12,0 10,1 11 6 - - NW 1018,3 10 0,0
14.06.2018 23:00:00 12,6 10,0 9 5 - - WNW 1018,3 12 0,0
14.06.2018 22:00:00 13,8 10,0 16 9 - - WNW 1018,0 19 0,0
14.06.2018 21:00:00 15,1 9,5 15 8 - - WNW 1017,5 17 0,0
14.06.2018 20:00:00 16,8 8,6 18 10 - - NW 1017,0 18 0,0
14.06.2018 19:00:00 17,3 9,3 16 9 - - WNW 1016,6 11 0,0
14.06.2018 18:00:00 17,9 9,3 22 12 - - NW 1016,3 11 0,0
14.06.2018 17:00:00 17,9 9,0 22 12 - - NW 1015,8 17 0,0
14.06.2018 16:00:00 19,4 10,2 21 11 - - W 1015,3 11 0,0
14.06.2018 15:00:00 18,9 10,0 22 12 - - WNW 1014,9 20 0,0
14.06.2018 14:00:00 19,0 9,6 22 12 - - WNW 1014,6 22 0,0
14.06.2018 13:00:00 18,2 10,8 28 15 - - WNW 1014,1 12 0,0
14.06.2018 12:00:00 16,8 11,1 21 11 - - WNW 1013,5 13 0,0
14.06.2018 11:00:00 15,8 12,6 31 17 46 25 W 1013,1 13 0,0
14.06.2018 10:00:00 15,3 12,6 24 13 - - W 1012,5 8 0,0
14.06.2018 09:00:00 15,0 13,9 28 15 - - W 1011,6 9 0,0
14.06.2018 08:00:00 15,3 15,2 31 17 50 27 WSW 1010,7 5 0,0
14.06.2018 07:00:00 14,6 14,5 37 20 54 29 SW 1010,6 2,9 0,4
14.06.2018 06:00:00 14,4 14,2 37 20 50 27 SW 1011,0 3,2 1,0
14.06.2018 05:00:00 14,3 13,9 39 21 50 27 SSW 1011,4 4,1 0,0
14.06.2018 04:00:00 14,3 13,5 35 19 48 26 SSW 1012,3 5 0,0
14.06.2018 03:00:00 14,6 13,2 29 16 - - SSW 1013,0 10 0,0
14.06.2018 02:00:00 14,5 12,7 31 17 - - SSW 1013,8 14 0,0
14.06.2018 01:00:00 14,5 12,8 28 15 - - SSW 1014,7 15 0,0
14.06.2018 00:00:00 14,6 12,5 26 14 - - SW 1015,5 16 0,0
13.06.2018 23:00:00 14,7 12,8 26 14 - - SW 1016,2 13 0,0
13.06.2018 22:00:00 14,6 12,7 22 12 - - SW 1016,6 14 0,0
13.06.2018 21:00:00 14,8 12,2 26 14 - - SW 1016,7 11 0,0
13.06.2018 20:00:00 15,4 13,0 28 15 - - SW 1017,1 18 0,0
13.06.2018 19:00:00 16,2 12,4 26 14 - - SW 1017,4 22 0,0

tt = Température de l'air
td = dewpoint
ff = Vitesse du vent
fx = gusts
dd = Direction du vent
ppp = reduced air pressure
vv = visibility
rr = Quantités de précipitations

stations d'obs. à proximité